This demonstration page uses our WeatherBlox Daily Observations layout. Learn more.

Left ArrowRight Arrow

Hourly Observations for October 19, 2020

Temp ( °F °C ) Dew Point ( °F °C ) Humidity (%) Winds ( mph kmh ) Pressure ( in mb ) Visibility ( mi km ) Precip ( " mm )
12:53 am 00:53 Clear 60 15.6 46 7.8 60 60 NNE 7 11 29.88 1012 10 16 0.00 0.00
1:53 am 01:53 Clear 54 12.2 44 6.7 69 69 NNE 7 11 29.88 1012 10 16 0.00 0.00
2:53 am 02:53 Clear 53 11.7 43 6.1 69 69 NNE 7 11 29.88 1012 10 16 0.00 0.00
5:53 am 05:53 Clear 48 8.9 40 4.4 74 74 NNE 9 15 29.92 1013 10 16 0.00 0.00
6:53 am 06:53 Clear 46 7.8 39 3.9 77 77 NNE 12 19 29.94 1014 10 16 0.00 0.00
7:53 am 07:53 Clear 45 7.2 38 3.3 77 77 N 13 20 30.00 1016 10 16 0.00 0.00
8:53 am 08:53 Sunny 46 7.8 39 3.9 77 77 N 14 22 30.02 1017 10 16 0.00 0.00
9:53 am 09:53 Sunny 50 10 40 4.4 68 68 NNE 10 17 30.03 1017 10 16 0.00 0.00
10:53 am 10:53 Sunny 55 12.8 42 5.6 62 62 ENE 6 9 30.02 1017 10 16 0.00 0.00
11:53 am 11:53 Sunny 58 14.4 44 6.7 60 60 SSW 5 7 30.01 1016 10 16 0.00 0.00
12:53 pm 12:53 Sunny 65 18.3 45 7.2 49 49 E 6 9 29.97 1015 10 16 0.00 0.00
1:53 pm 13:53 Sunny 69 20.6 45 7.2 42 42 VRB 6 9 29.95 1014 10 16 0.00 0.00
2:53 pm 14:53 Sunny 73 22.8 45 7.2 37 37 ESE 7 11 29.90 1012 10 16 0.00 0.00
3:53 pm 15:53 Sunny 76 24.4 44 6.7 32 32 Calm 29.87 1012 10 16 0.00 0.00
4:53 pm 16:53 Sunny 78 25.6 44 6.7 30 30 ESE 8 13 29.85 1011 10 16 0.00 0.00
5:53 pm 17:53 Sunny 79 26.1 44 6.7 29 29 E 9 15 29.85 1011 10 16 0.00 0.00
6:53 pm 18:53 Sunny 77 25 46 7.8 33 33 ESE 10 17 29.85 1011 10 16 0.00 0.00
7:53 pm 19:53 Clear 71 21.7 46 7.8 41 41 ESE 6 9 29.86 1011 10 16 0.00 0.00
8:53 pm 20:53 Clear 67 19.4 46 7.8 47 47 E 3 6 29.87 1012 10 16 0.00 0.00
9:53 pm 21:53 Clear 63 17.2 45 7.2 52 52 ENE 3 6 29.88 1012 10 16 0.00 0.00
10:53 pm 22:53 Clear 68 20 54 12.2 61 61 ESE 8 13 29.87 1011 10 16 0.00 0.00
11:53 pm 23:53 Clear 66 18.9 57 13.9 73 73 ESE 6 9 29.87 1011 10 16 0.00 0.00

Powered by AerisWeather